User: anonymous   Login
Location: Unspecified
(0.0000°N, 0.0000°E)
Time: 00:13:24
(UTC+00:00)
Language:

STARLINK-33769 - Orbit

View from above orbital plane
View from above orbital plane
View from above satellite
View from above satellite

Ground track
Ground track

The orbit is defined by the following mean orbital elements,

1 63773U          26145.53809847 +.00000000 +00000-0 +74902-3 0 00006
2 63773  42.9997 330.9658 0001141 274.4562  85.6160 15.27590247    07
Epoch (UTC): 25 May 2026 12:54:51
Eccentricity: 0.0001141
inclination: 42.9997°
perigee height: 482 km
apogee height: 484 km
right ascension of ascending node: 330.9658°
argument of perigee: 274.4562°
revolutions per day: 15.27590247
mean anomaly at epoch: 85.6160°

The dashed part of the orbit path shows where the satellite is in the earth's shadow,  

DLR